Regional Weather Roundup
Issued by NWS Northern Indiana

Home | Current Version | Previous Version | Graphics & Text | Print | Product List | Glossary On
Versions: 1 2 3 4 5 6 7 8 9 10 11 12 13 14 15 16 17 18 19 20 21 22 23 24 25 26 27 28 29 30 31 32 33 34 35 36 37 38 39 40 41 42 43 44 45 46 47 48 49 50
000
ASUS43 KIWX 131510
RWRIWX

KIWX WEATHER ROUNDUP
NATIONAL WEATHER SERVICE NORTHERN INDIANA
1000 AM EST WED DEC 13 2017

NOTE: "FAIR" INDICATES FEW OR NO CLOUDS BELOW 12,000 FEET WITH NO
SIGNIFICANT WEATHER AND/OR OBSTRUCTIONS TO VISIBILITY.

* THESE STATIONS ARE NOT UNDER NWS QUALITY CONTROL. THEY ALSO MAY NOT
  REPORT WEATHER SUCH AS PRECIPITATION OR FOG.

INZ001>027-131600-
NORTHERN INDIANA

CITY           SKY/WX    TMP DP  RH WIND       PRES   REMARKS
GARY*          CLOUDY    28   9  43 S12G23    29.56F WCI  18
VALPARAISO     CLOUDY    27  12  53 S14G24    29.58F WCI  16
MICHIGAN CITY* CLOUDY    27  10  50 S12G20    29.59F WCI  16
LAPORTE*       CLOUDY    24  12  60 S10       29.60F WCI  13
KNOX*          CLOUDY    27  12  54 S16       29.63F WCI  14
SOUTH BEND     CLOUDY    22  11  62 S12       29.63F WCI  10
ELKHART*       CLOUDY    21  10  63 S8        29.65F WCI  12
GOSHEN         CLOUDY    22  11  62 S14       29.65F WCI   9
MONTICELLO*    CLOUDY    27   7  43 S13G20    29.65F WCI  16
LOGANSPORT*    CLOUDY    27  10  50 S17       29.68F WCI  14
ROCHESTER*     CLOUDY    28  14  54 S14       29.66F WCI  17
WARSAW*        CLOUDY    23  10  58 S9        29.67F WCI  13
AUBURN*        CLOUDY    23  12  63 S5        29.72F WCI  17
FORT WAYNE     CLOUDY    22  13  68 S14       29.72F WCI   9
HUNTINGTON*    CLOUDY    23   8  53 S10       29.71F WCI  12
PERU/GRISSOM   CLOUDY    26  10  50 S16G23    29.68F WCI  13
MARION*        CLOUDY    24  10  53 S16       29.74F WCI  11

$$
INZ028>050-131600-
CENTRAL INDIANA

CITY           SKY/WX    TMP DP  RH WIND       PRES   REMARKS
LAFAYETTE      CLOUDY    28   9  44 S14G21    29.67F WCI  17
KOKOMO*        CLOUDY    25  12  58 S18       29.71F WCI  11
MUNCIE*        CLOUDY    26   8  46 S10G20    29.75F WCI  16
INDIANAPOLIS   CLOUDY    26   8  46 S15G25    29.76F WCI  14

$$
MIZ043>046-050>051-056>058-064>065-071>073-077>080-131600-
SOUTHWEST LOWER MICHIGAN

CITY           SKY/WX    TMP DP  RH WIND       PRES   REMARKS
BATTLE CREEK   LGT SNOW  19  10  68 SE12      29.66F WCI   7
BENTON HARBOR  CLOUDY    23   9  55 S10G21    29.60F WCI  12
COLDWATER*     CLOUDY    20  10  64 S9        29.68F WCI   9
HILLSDALE*     FLURRIES  18   9  68 SE8       29.69F WCI   7
HOLLAND        LGT SNOW  19  15  84 SE14      29.61F VSB 1   WCI   6
GRAND RAPIDS   SNOW      18  17  96 SE12      29.64F VSB 1/2 WCI   5
KALAMAZOO      LGT SNOW  19  12  74 S10       29.66F VSB 3/4 WCI   7
STURGIS*       LGT SNOW  19  13  75 S10       29.66F WCI   8
THREE RIVERS*  LGT SNOW  20  13  74 S12       29.66F WCI   9

$$
OHZ001>008-015>018-024>025-131600-
NORTHWEST OHIO

CITY           SKY/WX    TMP DP  RH WIND       PRES   REMARKS
WAUSEON*       CLOUDY    19  14  79 S12       29.75F WCI   7
DEFIANCE       CLOUDY    21  10  62 S10       29.76F WCI  10
FINDLAY        CLOUDY    21   9  59 S14       29.78F WCI   8
TOLEDO EXPRESS LGT SNOW  19  13  77 S9        29.79S WCI   8
TOLEDO METCALF LGT SNOW  20  12  71 S10       29.80F WCI   9
LIMA           CLOUDY    20  11  68 S12       29.78F WCI   8

$$
AND FOR LAKE MICHIGAN COASTAL AND OPEN LAKE BUOY OBSERVATIONS

STATION/POSITION TEMP    WIND        PRES    VSBY  WAVE
                 AIR SEA DIR/SP/G                  HT/PER
                 (F)     (DEG/KT/KT) (MB)    (MI)  (FT/S)
CALUMET HARBOR    28     160/ 15/ 22  999.2F
MICHIGAN CITY     25     150/ 17/ 21   N/A
BURNS HARBOR      27     170/ 12/ 21 1002.0F
SAINT JOSEPH      24     180/  7/ 11 1003.0

$$
&&




USA.gov is the U.S. government's official web portal to all federal, state and local government web resources and services.